Regional Weather Roundup
Issued by NWS Jackson, KY

Home | Current Version | Previous Version | Text Only | Print | Product List | Glossary Off
Versions: 1 2 3 4 5 6 7 8 9 10 11 12 13 14 15 16 17 18 19 20 21 22 23 24 25 26 27 28 29 30 31 32 33 34 35 36 37 38 39 40 41 42 43 44 45 46 47 48 49 50

000
ASUS43 KJKL 201911
RWRJKL

EAST KENTUCKY HOURLY WEATHER ROUNDUP
NATIONAL WEATHER SERVICE JACKSON KY
300 PM EDT SAT SEP 20 2014

NOTE: "FAIR" INDICATES FEW OR NO CLOUDS BELOW 12,000 FEET WITH
NO SIGNIFICANT WEATHER AND/OR OBSTRUCTIONS TO VISIBILITY.

* THESE REPORTS ARE NOT UNDER NWS QUALITY CONTROL AND MAY NOT
  REPORT WEATHER SUCH AS PRECIPITATION AND FOG.

KYZ079-080-083-085-087-088-110-112-115-119-120-202000
...EASTERN KENTUCKY...

CITY           SKY/WX    TMP DP  RH WIND       PRES   REMARKS
JACKSON        PTSUNNY   78  62  57 VRB3      30.10F
LONDON         MOSUNNY   81  60  48 SW8       30.10F
SOMERSET*      PTSUNNY   81  59  47 W13       30.09F
MONTICELLO*    MOSUNNY   83  64  52 S7        30.10F
WILLIAMSBURG*  MOSUNNY   81  64  57 SW5       30.09F
MIDDLESBORO*   SUNNY     81  60  49 S7        30.11F
HARLAN APT*    CLEAR     79  55  44 MISG      30.11F
BLACK MTN*       N/A     72  59  64 E1          N/A
PIKEVILLE APT* MOSUNNY   79  63  57 SW3       30.11F
BIG SANDY*     MOCLDY    79  63  57 SW6       30.10F
MOREHEAD APT*  PTCLDY    79  63  57 SW10      30.09F
$$

KYZ035-036-041-042-044-050-067-078-099-202000
...CENTRAL KENTUCKY...

CITY           SKY/WX    TMP DP  RH WIND       PRES   REMARKS
MT STERLING*   PTSUNNY   79  64  61 W9G16     30.08F
FLEMING/MASON* PTSUNNY   81  66  61 SW14      30.06F
DANVILLE*      MOSUNNY   81  63  54 SW9       30.08F
RICHMOND*      PTSUNNY   81  61  50 W8        30.08F
LEXINGTON      MOSUNNY   82  64  54 SW10      30.06F
FRANKFORT      MOSUNNY   81  64  56 SW12G21   30.04F
$$

KYZ091>093-OHZ055-061-077-WVZ005-015-034-035-042-202000
...SOUTHERN OHIO/WEST VIRGINIA...

CITY           SKY/WX    TMP DP  RH WIND       PRES   REMARKS
COVINGTON      PTSUNNY   80  66  62 SW14      30.03F
COLUMBUS       PTSUNNY   82  61  48 SW15G24   29.99F
DAYTON         PTSUNNY   81  60  48 SW22      29.99F
WILMINGTON     PTSUNNY   79  63  57 SW14G26   30.01F
HUNTINGTON     MOSUNNY   80  64  58 SW8       30.06F
CHARLESTON     MOSUNNY   80  62  54 SW5       30.08F
PINEVILLE*     MOSUNNY   83  63  51 MISG      30.18F
BECKLEY        CLOUDY    74  57  55 SE5       30.16F
BLUEFIELD      MOSUNNY   76  55  48 VRB5      30.19F
$$

VAZ002-007-008-TNZ017-027-036-066-071-202000
...SOUTHWEST VIRGINIA/EAST TENNESSEE...

CITY           SKY/WX    TMP DP  RH WIND       PRES   REMARKS
WISE*          CLOUDY    77  55  47 S5        30.18F
JONESVILLE*    MOCLDY    81  59  47 CALM      30.14F
ABINGDON*      SUNNY     79  55  43 CALM      30.16F
BRISTOL        MOSUNNY   81  51  35 W7        30.12F
KNOXVILLE      MOSUNNY   84  58  40 CALM      30.08F
OAK RIDGE      SUNNY     83  59  44 CALM      30.10F
CROSSVILLE     MOSUNNY   80  59  48 VRB3      30.13F
NASHVILLE      MOSUNNY   87  64  46 W8        30.06F
$$

...KEY TO REMARKS...
VSB - VISIBILITY IN MILES
WCI - WIND CHILL INDEX
HX  - HEAT INDEX

$$


USA.gov is the U.S. government's official web portal to all federal, state and local government web resources and services.